#timestamp,LO_Frequency,Hit 
1499950815.0,286046917.2,N
1499950815.9,286046917.2,N
1499950835.8,286046916.6,N
1499950855.6,286046916.9,N
1499950875.4,286046917.0,N
1499950895.3,286046915.0,N
1499950915.1,286046915.9,N
1499950935.8,286046913.5,N
1499950955.7,286046914.3,N
1499950975.5,286046914.6,N
1499950995.3,286046914.0,N
1499951015.2,286046914.0,N
1499951035.9,286046912.1,N
1499951055.7,286046914.7,N
1499951075.6,286046914.6,N
1499951095.4,286046914.1,N
1499951115.2,286046914.4,N
1499951135.0,286046911.7,N
1499951136.0,286046911.7,N
1499951155.8,286046916.4,N
1499951175.6,286046911.9,N
1499951195.4,286046914.8,N
1499951215.3,286046913.5,N
1499951235.1,286046918.0,N
1499951255.8,286046913.5,N
1499951275.7,286046913.3,N
1499951295.5,286046913.7,N
1499951315.3,286046912.2,N
1499951335.2,286046912.9,N
1499951355.9,286046911.4,N
1499951375.7,286046909.0,N
1499951395.6,286046909.4,N
1499951415.4,286046908.3,N
1499951435.2,286046905.3,N
1499951455.1,286046908.4,N
1499951456.0,286046908.4,N
1499951475.8,286046906.4,N
1499951495.6,286046905.8,N
1499951515.5,286046904.7,N
1499951535.3,286046904.8,N
1499951555.1,286046902.5,N
1499951575.8,286046902.5,N
1499951595.7,286046904.6,N
1499951615.5,286046904.9,N
1499951635.3,286046902.1,N
1499951655.2,286046902.7,N
1499951675.9,286046905.0,N
1499951695.7,286046902.2,N
1499951715.6,286046906.7,N
1499951735.4,286046905.7,N
1499951755.2,286046907.8,N
1499951775.1,286046908.1,N
1499951776.0,286046908.1,N
1499951795.8,286046908.4,N
1499951815.6,286046907.6,N
1499951835.5,286046907.0,N
1499951855.3,286046908.3,N
1499951875.1,286046907.7,N
1499951895.8,286046905.7,N
1499951915.7,286046907.6,N
1499951935.5,286046908.2,N
1499951955.3,286046907.0,N
1499951975.2,286046908.3,N
1499951995.9,286046905.3,N
1499952015.7,286046906.1,N
1499952035.6,286046906.0,N
1499952055.4,286046904.7,N
1499952075.2,286046905.7,N
1499952095.1,286046905.4,N
1499952096.0,286046905.4,N
1499952115.8,286046908.0,N
1499952135.6,286046907.0,N
1499952155.5,286046905.4,N
1499952175.3,286046905.7,N
1499952195.1,286046906.4,N
1499952215.8,286046905.2,N
1499952235.7,286046904.8,N
1499952255.5,286046900.5,N
1499952275.3,286046900.5,N
1499952295.2,286046901.2,N
1499952315.9,286046898.9,N
1499952335.7,286046902.0,N
1499952355.6,286046899.3,N
1499952375.4,286046900.2,N
1499952395.2,286046900.3,N
1499952415.1,286046897.7,N
1499952416.0,286046897.7,N
1499952435.8,286046897.4,N
1499952455.6,286046898.1,N
1499952475.5,286046895.8,N
1499952495.3,286046897.0,N
1499952515.1,286046896.5,N
1499952535.9,286046894.7,N
1499952555.7,286046897.2,N
1499952575.5,286046896.6,N
1499952595.3,286046896.7,N
1499952615.2,286046896.8,N
1499952635.0,286046897.0,N
1499952635.9,286046897.0,N
1499952655.7,286046896.0,N
1499952675.6,286046896.1,N
1499952695.4,286046898.0,N
1499952715.2,286046898.5,N
1499952735.1,286046898.3,N
1499952736.0,286046898.3,N
1499952755.8,286046898.2,N
1499952775.6,286046896.3,N
1499952795.5,286046896.8,N
1499952815.3,286046894.2,N
1499952835.1,286046894.7,N
1499952855.9,286046895.1,N
1499952875.7,286046893.8,N
1499952895.5,286046893.2,N
1499952915.4,286046893.5,N
1499952935.2,286046892.1,N
1499952955.0,286046889.4,N
1499952955.9,286046889.4,N
1499952975.8,286046889.8,N
1499952995.6,286046890.7,N
1499953015.4,286046888.0,N
1499953035.2,286046887.8,N
1499953055.1,286046887.8,N
1499953056.0,286046887.8,N
1499953075.8,286046888.4,N
1499953095.6,286046888.3,N
1499953115.5,286046889.5,N
1499953135.3,286046889.9,N
1499953155.1,286046890.2,N
1499953175.9,286046887.8,N
1499953195.7,286046886.1,N
1499953215.5,286046889.0,N
1499953235.4,286046889.8,N
1499953255.2,286046893.4,N
1499953275.0,286046889.8,N
1499953275.9,286046889.8,N
1499953295.8,286046889.6,N
1499953315.6,286046890.0,N
1499953335.4,286046889.0,N
1499953355.3,286046886.3,N
1499953375.1,286046886.5,N
1499953376.0,286046886.5,N
1499953395.8,286046886.4,N
1499953415.7,286046889.0,N
1499953435.5,286046886.6,N
1499953455.3,286046887.1,N
1499953475.1,286046886.8,N
1499953495.9,286046887.2,N
1499953515.7,286046887.5,N
1499953535.5,286046885.0,N
1499953555.4,286046884.5,N
1499953575.2,286046884.6,N
1499953595.0,286046887.1,N
1499953595.9,286046887.1,N
1499953615.8,286046886.8,N
1499953635.6,286046886.3,N
1499953655.4,286046887.3,N
1499953675.3,286046889.1,N
1499953695.1,286046884.6,N
1499953696.0,286046884.6,N
1499953715.8,286046884.6,N
1499953735.7,286046885.2,N
1499953755.5,286046885.0,N
1499953775.3,286046885.2,N
1499953795.2,286046883.8,N
1499953815.9,286046883.8,N
1499953835.7,286046881.8,N
1499953855.6,286046881.5,N
1499953875.4,286046881.5,N
1499953895.2,286046879.7,Y
1499953915.1,286046988.1,N
1499953916.0,286046988.1,N
1499953935.8,286046989.9,N
1499953955.6,286046988.7,N
1499953975.4,286046989.5,N
1499953995.3,286046989.5,N
1499954015.1,286046990.6,N
1499954035.8,286046992.1,N
1499954055.7,286046993.5,N
1499954075.5,286046993.8,N
1499954095.3,286046992.2,N
1499954115.2,286046992.1,N
1499954135.9,286046991.8,N
1499954155.7,286046994.3,N
1499954175.6,286046992.2,N
1499954195.4,286046992.5,N
1499954215.2,286046990.7,N
1499954235.1,286046992.7,N
1499954236.0,286046992.7,N
1499954255.8,286046993.2,N
1499954275.6,286046992.1,N
1499954295.5,286046990.4,N
1499954315.3,286046992.4,N
1499954335.1,286046990.6,N
1499954355.8,286046990.9,N
1499954375.7,286046990.7,N
1499954395.5,286046988.6,N
